Torna al catalogo

STARLINK-36881

AttivoComunicazioniSSO
NORAD 67962·PAYLOAD·🇺🇸 United States

Lanciato Feb 25, 2026 da Vandenberg Space Force Base

Loading…

Prossimi Passaggi (prossime 24 ore)

TLE

AggiornatoSource: CelesTrak SupGP

Epoca: Sep 14, 2026, 14:45 UTC

1 67962C 26038B   26257.61506944 -.00053760  00000+0 -16685-2 0  2573
2 67962  97.2843 265.9780 0001710  96.2082  45.8205 15.33472382    11

Traccia STARLINK-36881 in tempo reale con AllMySat

Download on the App Store